Regional Weather Roundup
Issued by NWS New Orleans/Baton Rouge, LA

Home | Current Version | Previous Version | Text Only | Print | Product List | Glossary On
Versions: 1 2 3 4 5 6 7 8 9 10 11 12 13 14 15 16 17 18 19 20 21 22 23 24 25 26 27 28 29 30 31 32 33 34 35 36 37 38 39 40 41 42 43 44 45 46 47 48 49 50
416
ASUS44 KLIX 021201
RWRLIX
NEW ORLEANS REGIONAL WEATHER ROUNDUP
NATIONAL WEATHER SERVICE NEW ORLEANS LA
700 AM CDT THU OCT 02 2014

NOTE: "FAIR" INDICATES FEW OR NO CLOUDS BELOW 12,000 FEET WITH NO
      SIGNIFICANT WEATHER AND/OR OBSTRUCTIONS TO VISIBILITY.
      SKY/WX - SKY CONDITION AND SIGNIFICANT WEATHER.
      TMP - AIR TEMPERATURE.     DP    - DEWPOINT TEMPERATURE.
      RH  - RELATIVE HUMIDITY.   PRES  - PRESSURE.
      HI  - HEAT INDEX.          WCI   - WIND CHILL INDEX.

*  THESE STATIONS ARE NOT NWS OR FAA STATIONS AND ARE NOT UNDER
   NWS QUALITY CONTROL.

LAZ038-040-048-061>063-065>067-069-021300-
SOUTHEAST LOUISIANA

CITY           SKY/WX    TMP DP  RH WIND       PRES   REMARKS
N.O. AUDUBON     N/A     78  78  98 MISG        N/A
6HR MIN TEMP:  78; 6HR MAX TEMP:  79;

N.O. INTL ARPT PTCLDY    77  75  93 SE6       29.96S
6HR MIN TEMP:  76; 6HR MAX TEMP:  78;

N.O. LAKEFRONT CLEAR     77  75  93 SE5       29.97R
6HR MIN TEMP:  77; 6HR MAX TEMP:  78;

N.O. DOWNTOWN*   N/A     79  73  83 SE6       29.97S
6HR MIN TEMP:  79; 6HR MAX TEMP:  79;

SLIDELL        MOCLDY    75  72  90 CALM      29.97R
6HR MIN TEMP:  74; 6HR MAX TEMP:  79;

BATON ROUGE    CLOUDY    76  75  97 SE6       29.95S FOG
6HR MIN TEMP:  75; 6HR MAX TEMP:  77;

BOOTHVILLE     CLEAR     78  77  96 SE5       29.98R
6HR MIN TEMP:  77; 6HR MAX TEMP:  78;

BELLE CHASSE   PTCLDY    78  74  87 SE5       29.97R
6HR MIN TEMP:  77; 6HR MAX TEMP:  79;

BOGALUSA*      CLOUDY    78  74  87 CALM      29.99R
6HR MIN TEMP:  76; 6HR MAX TEMP:  78;

GALLIANO*      NOT AVBL
NEW ROADS*     CLOUDY    76  75  97 SE3       29.95R FOG
6HR MIN TEMP:  75; 6HR MAX TEMP:  76;

GONZALES*      CLOUDY    75  75 100 CALM      29.95S FOG
6HR MIN TEMP:  74; 6HR MAX TEMP:  77; 6HR PCP:  0.01;

HAMMOND*       NOT AVBL
HOUMA*         CLEAR    N/A N/A N/A CALM      29.96R
PORT FOURCHON* SUNNY     81  77  89 SE6       30.00R

$$

MSZ070-080>082-021300-
SOUTHERN MISSISSIPPI

CITY           SKY/WX    TMP DP  RH WIND       PRES   REMARKS
MCCOMB         CLOUDY    77  74  90 S7        29.98R
6HR MIN TEMP:  75; 6HR MAX TEMP:  77; 6HR PCP: TRACE;

GULFPORT       CLEAR     78  76  93 SE5       29.98R
6HR MIN TEMP:  78; 6HR MAX TEMP:  80;

BILOXI         PTCLDY    79  78  95 SE5       29.99R
6HR MIN TEMP:  79; 6HR MAX TEMP:  80;

PASCAGOULA     MOCLDY    73  72  96 CALM      29.99R
6HR MIN TEMP:  70; 6HR MAX TEMP:  75;

STENNIS ARPT*  PTCLDY    75  72  88 CALM      29.98  FOG

$$

COASTAL OBSERVATIONS
LAKE AND NEARSHORE STATIONS

STATION/POSITION TIME  TEMP    WIND        PRES    WAVE
                       AIR SEA DIR/SP/G            HT/PER
                 (UTC) (F)     (DEG/KT/KT) (MB)    (FT/S)
PASCAGOULA       1100   81     150/  5/  8 1014.8
WAVELAND YACHT   1100   79     180/  4/  5 1014.3
GRAND ISLE       1100   80 81  150/  4/  7 1015.1
SOUTHWEST PASS   1100   81 85  170/  8/  9 1015.2
NEW CANAL        1100   77 77  150/  2/  4 1015.0
SHELL BEACH      1100   78 75  130/  4/  5 1014.7

OFFSHORE STATIONS

STATION/POSITION TIME  TEMP    WIND        PRES    WAVE
                       AIR SEA DIR/SP/G            HT/PER
                 (UTC) (F)     (DEG/KT/KT) (MB)    (FT/S)
64 S DAUPHIN ISL 1117   81 82  150/ 12/ 14 1015.7    2/ 3

$$




USA.gov is the U.S. government's official web portal to all federal, state and local government web resources and services.